Weather Roundup
Issued by NWS

Home | Current Version | Previous Version | Text Only | Print | Product List | Glossary On
Versions: 1 2 3 4 5 6 7 8 9 10 11 12 13 14 15 16 17 18 19 20 21 22 23 24 25 26 27 28 29 30 31 32 33 34 35 36 37 38 39 40 41 42 43 44 45 46 47 48 49 50
000
NZUS93 KARX 261310
HRRWXR

CURRENT HOURLY OBSERVATIONS ACROSS
MUCH OF THE UPPER MISSISSIPPI VALLEY
NATIONAL WEATHER SERVICE LA CROSSE WI
700 AM CST SUN FEB 26 2017


...SOUTHEAST MINNESOTA...


CITY           SKY/WX    TMP DP  RH WIND       PRES   REMARKS
ROCHESTER      CLEAR     20  15  81 SW15      29.75S WCI   6
ROCHESTER/MAYO FAIR      24  17  76 SW9G17    29.75S WCI  14
WINONA         MOCLDY    30  21  69 SW3       29.79S
AUSTIN         CLEAR     18  12  79 SW6       29.77S WCI   9
ALBERT LEA     CLEAR     19  16  86 SW8       29.76S WCI   9
DODGE CENTER   NOT AVBL
PRESTON        CLEAR     23  17  77 SW10      29.77R WCI  12
OWATONNA       CLEAR     16  10  79 S9        29.75S WCI   4
FARIBAULT      PTCLDY    18  14  86 S6        29.76R WCI   9
$$

...ELSEWHERE IN MINNESOTA...


CITY           SKY/WX    TMP DP  RH WIND       PRES   REMARKS
MINNEAPOLIS    PTCLDY    24  17  74 SW5       29.74S WCI  18
INTNL FALLS    LGT SNOW   9   4  80 NW9       29.67S WCI  -4
DULUTH         FLURRIES  24  22  91 SW10      29.61S WCI  14
RED WING       CLEAR     21  16  79 CALM      29.76S
REDWOOD FALLS  CLOUDY    25  20  81 W7        29.73S WCI  17
MANKATO          N/A     18  15  88 SW6       29.76S WCI  10
WORTHINGTON    CLEAR     20  16  84 SW15      29.75R WCI   6
FAIRMONT       CLEAR     18  15  88 SW13      29.76S WCI   5
$$

...SOUTHWEST WISCONSIN...


CITY           SKY/WX    TMP DP  RH WIND       PRES   REMARKS
LA CROSSE      MOCLDY    28  18  66 SE6       29.79F WCI  22
PRAIRIE DU CHI MOCLDY    31  18  59 S6        29.84S WCI  25
BOSCOBEL       CLOUDY    30  18  60 S6        29.84F WCI  24
LONE ROCK      MOCLDY    29  19  66 SW13      29.85F WCI  19
PLATTEVILLE    PTCLDY    29  22  75 S13       29.86S WCI  19
FORT MC COY    CLOUDY    26  19  74 S5        29.79F WCI  20
CAMP DOUGLAS   CLOUDY    25  16  69 S9        29.79F WCI  15
MAUSTON-NEW LI CLOUDY    25  18  74 S8        29.79F WCI  16
VIROQUA        CLOUDY    26  19  73 S10       29.78F WCI  16
WIS DELLS      CLOUDY    26  18  71 S14       29.82S WCI  14
$$

...ELSEWHERE IN WISCONSIN...


CITY           SKY/WX    TMP DP  RH WIND       PRES   REMARKS
MILWAUKEE      CLOUDY    27  18  69 S12       29.94F WCI  17
MADISON        CLOUDY    27  18  69 S10       29.86F WCI  17
GREEN BAY      CLOUDY    25  19  78 S9        29.84F WCI  15
EAU CLAIRE     MOCLDY    21  15  78 S9        29.73F WCI  11
BLACK RVR FLS  CLOUDY    20  16  83 CALM      29.78S
MEDFORD        CLOUDY    21  15  78 S10       29.72S WCI  10
WAUSAU         CLOUDY    23  17  78 S14       29.74F WCI  11
WIS RAPIDS     CLOUDY    23  18  81 S8        29.79F WCI  14
MARSHFIELD     CLOUDY    22  15  75 S10       29.74F WCI  11
RICE LAKE      CLOUDY    24  19  78 S5        29.72S WCI  18
$$

...NORTHEAST IOWA...


CITY           SKY/WX    TMP DP  RH WIND       PRES   REMARKS
WATERLOO       CLEAR     27  18  69 SW12      29.83R WCI  17
DUBUQUE        PTCLDY    27  18  69 S16       29.85F WCI  15
DECORAH        MOCLDY    28  19  69 SW8G15    29.78S WCI  20
MASON CITY     CLEAR     23  17  78 SW14      29.80R WCI  11
CHARLES CITY   CLEAR     25  19  80 S10       29.80S WCI  15
OELWEIN        CLEAR     25  21  86 SW12      29.83S WCI  14
$$

...ELSEWHERE IN IOWA...


CITY           SKY/WX    TMP DP  RH WIND       PRES   REMARKS
DES MOINES     PTCLDY    29  20  69 SW13      29.89R WCI  19
IOWA CITY      PTCLDY    32  17  54 SW10      29.93R WCI  24
FORT DODGE     CLEAR     21  16  79 SW6       29.84R WCI  14
MARSHALLTOWN   CLEAR     27  20  75 SW16      29.84R WCI  15
CEDAR RAPIDS   CLEAR     28  19  69 S15       29.87S WCI  16
$$

...NORTHERN ILLINOIS...


CITY           SKY/WX    TMP DP  RH WIND       PRES   REMARKS
CHICAGO-OHARE  CLOUDY    27  19  72 S10       30.00F WCI  17
CHICAGO-MIDWAY CLOUDY    26  17  68 S10       30.02F WCI  16
MOLINE         CLOUDY    32  17  54 S17G26    29.94S WCI  21
ROCKFORD       CLOUDY    29  19  66 S14       29.97F WCI  18
PEORIA         MOCLDY    27  17  66 S10       30.04S WCI  17
$$

NOTE: "FAIR" INDICATES FEW OR NO CLOUDS BELOW 12,000 FEET WITH NO
SIGNIFICANT WEATHER AND/OR OBSTRUCTIONS TO VISIBILITY. WIND
SPEEDS ARE IN MILES-PER-HOUR.




USA.gov is the U.S. government's official web portal to all federal, state and local government web resources and services.